Weather in Belize City

Belize     17°29′32″N   88°12′38″W
temp.,
°C
wind,
m/s
gust,
m/s
humid.,
%
clouds,
%
prec.,
mm/h
press.,
hPa
HPBL,
m
3 march, wed
wed300:00+25e57842 0.2 1015626
03:00+25ese458422 0.1 1014654
06:00+25ese348215 0.1 1015611
09:00+27se45710 0.0 1017887
12:00+27ese33661 0.0 1016735
15:00+27e34680 0.0 1014563
18:00+26ene35760 0.0 1014458
21:00+25e35810 0.0 1017287
4 march, thu
thu400:00+25se46850 0.0 1017389
03:00+24se35866 0.0 1016519
06:00+22w349515 0.1 1016152
09:00+25w227743 0.1 1018326
12:00+26e336921 0.1 1017627
15:00+27ese33650 0.0 1014494
18:00+25e34730 0.0 1014436
21:00+25e35780 0.0 1015486
5 march, fri
fri500:00+24se35800 0.0 1014481
03:00+24sse35810 0.0 1013561
06:00+23ssw24810 0.0 1013558
09:00+25sw12742 0.0 1015357
12:00+27ese45621 0.0 1013887
15:00+27ese45640 0.0 1011888
18:00+25e34730 0.0 1011541
21:00+25e45780 0.0 1013514
6 march, sat
sat600:00+25ese46810 0.0 1012562
03:00+24ese348142 0.1 1011646
06:00+25ese347671 0.2 1013715
09:00+27se336796 0.1 1015956
12:00+27ese336264 0.1 1014902
15:00+27e33640 0.0 1011516
18:00+25e45740 0.0 1012383
21:00+25ese46810 0.0 1014344
7 march, sun
sun700:00+25sse35820 0.0 1014419
03:00+22wnw34932 0.4 1014169
06:00+22nw23913 0.6 1015133
09:00+25nnw227420 0.3 1018429
12:00+26ene337711 0.6 1016429
15:00+27e44721 0.6 1014514
18:00+26ese34780 0.6 1015338
21:00+25ese34790 0.1 1017396